GW1356 Weather Reports


Display with metric or nautical units.
time (UTC)temp
F
wind
direction
speed
MPH
gust
MPH
rain 1hr
in
rain 24hr
in
rain mn
in
humidity
%
barometer
mb
20260507151520 74 250 0.0 2.0 0.00 0.00 0.00 52 1023.6
20260507150024 75 221 0.0 4.0 0.00 0.00 0.00 53 1023.6
20260507144545 75 214 1.0 4.0 0.00 0.00 0.00 52 1023.7
20260507143045 75 202 2.0 7.0 0.00 0.00 0.00 54 1023.6
20260507141610 76 180 3.0 7.0 0.00 0.00 0.00 52 1023.6
20260507140110 75 214 2.0 7.0 0.00 0.00 0.00 54 1023.6
20260507134515 76 190 0.0 4.0 0.00 0.00 0.00 52 1023.7
20260507133022 77 163 1.0 4.0 0.00 0.00 0.00 51 1023.6
20260507131534 75 248 0.0 5.0 0.00 0.00 0.00 54 1023.6
20260507130043 74 152 2.0 7.0 0.00 0.00 0.00 54 1023.9
20260507124555 73 218 3.0 7.0 0.00 0.00 0.00 56 1024.0
20260507123053 74 214 0.0 5.0 0.00 0.00 0.00 52 1024.1
20260507121554 73 241 1.0 4.0 0.00 0.00 0.00 54 1024.2
20260507120100 73 212 1.0 6.0 0.00 0.00 0.00 55 1024.2
20260507120011 73 241 1.0 6.0 0.00 0.00 0.00 56 1024.2
20260507114512 72 225 3.0 6.0 0.00 0.00 0.00 56 1024.5
20260507113028 72 224 3.0 8.0 0.00 0.00 0.00 56 1024.7
20260507111536 73 260 4.0 5.0 0.00 0.00 0.00 53 1024.9
20260507110043 72 160 1.0 5.0 0.00 0.00 0.00 55 1024.8
20260507104548 71 139 2.0 5.0 0.00 0.00 0.00 58 1024.7
20260507103100 71 161 1.0 5.0 0.00 0.00 0.00 61 1024.3
20260507101513 70 210 1.0 4.0 0.00 0.00 0.00 61 1024.2
20260507100022 70 176 2.0 4.0 0.00 0.00 0.00 59 1024.3
20260507094526 71 235 2.0 5.0 0.00 0.00 0.00 59 1024.4
20260507093044 72 183 0.0 4.0 0.00 0.00 0.00 57 1024.3
20260507091543 72 227 1.0 5.0 0.00 0.00 0.00 57 1024.2
20260507090110 71 212 1.0 5.0 0.00 0.00 0.00 60 1024.3
20260507084501 70 239 2.0 5.0 0.00 0.00 0.00 63 1024.1
20260507083014 69 202 1.0 6.0 0.00 0.00 0.00 65 1024.2
20260507081507 69 153 1.0 6.0 0.00 0.00 0.00 66 1024.0
20260507080022 71 154 1.0 3.0 0.00 0.00 0.00 63 1024.0
20260507074528 71 176 0.0 4.0 0.00 0.00 0.00 62 1023.8
20260507073040 69 154 0.0 4.0 0.00 0.00 0.00 67 1023.8
20260507071545 68 160 2.0 4.0 0.00 0.00 0.00 69 1023.8
20260507070130 67 219 1.0 6.0 0.00 0.00 0.00 69 1023.7